Location: Igri�s
(42.2144°N, 0.4320°W)
Time: 09:11:31
(UTC+00:00)

NOSS 3-2 (C) - Pass Details

Date: 13 August 2020
Orbit: 800 x 1413 km, 63.4° (Epoch: 15 September)

Event Time Altitude Azimuth Distance (km) Brightness Sun altitude
Rises 19:36:51 0° 174° (S) 3,318 6.0 -6.3°
Reaches altitude 10° 19:39:39 10° 160° (SSE) 2,431 5.2 -6.7°
Maximum altitude 19:43:56 23° 109° (ESE) 1,778 4.3 -7.5°
Drops below altitude 10° 19:48:33 10° 59° (ENE) 2,659 5.5 -8.2°
Sets 19:51:46 0° 46° (NE) 3,713 6.4 -8.7°
